Apalachicola, FL

7:31 PM EDT on July 20, 2017 (GMT -0400)
Apalachicola Municipal

Weather History for KAAF - December, 2012

Change the Weather History Date:

Tuesday, December 11, 2012

  Actual Average Record
Temperature  
Mean Temperature 63 °F 56 °F  
Max Temperature 71 °F 66 °F 78 °F (1939)
Min Temperature 54 °F 46 °F 28 °F (1934)
Degree Days  
Heating Degree Days 2    
Month to date heating degree days 18  
Since 1 July heating degree days 221  
Cooling Degree Days 0    
Month to date cooling degree days 7  
Year to date cooling degree days 2765  
Growing Degree Days 12 (Base 50)    
Moisture  
Dew Point 60 °F    
Average Humidity 92    
Maximum Humidity 97    
Minimum Humidity 86    
Precipitation  
Precipitation 0.01 in 0.11 in 2.39 in (1983)
Month to date precipitation 0.01 1.24  
Year to date precipitation 55.64 55.63  
Sea Level Pressure  
Sea Level Pressure 29.95 in    
Wind  
Wind Speed 6 mph (NNW)    
Max Wind Speed 13 mph    
Max Gust Speed 18 mph    
Visibility 9 miles    
Events Rain    
T = Trace of Precipitation, MM = Missing Value Source: NWS Daily Summary

Daily Weather History Graph

Daily Weather History Graph

Search for Another Location

Airport or City:

Trip Planner

Search our weather history database for the weather conditions in past years. The results will help you decide how hot, cold, wet, or windy it might be!

Date:

Astronomy

Dec. 11, 2012 Rise Set
Actual Time 7:25 AM EST 5:41 PM EST
Civil Twilight 6:59 AM EST 6:07 PM EST
Nautical Twilight 6:29 AM EST 6:37 PM EST
Astronomical Twilight 6:00 AM EST 7:06 PM EST
Moon 5:23 AM EST (12/11) 4:17 PM EST (12/11)
Length of Visible Light 11h 08m
Length of Day
10h 16m
Waning Crescent, 4% of the Moon is Illuminated
Dec 11
Waning Crescent
Dec 13
New
Dec 20
First Quarter
Dec 28
Full
Jan 4
Last Quarter

Hourly Weather History & Observations

Time (EST) Temp. Dew Point Humidity Pressure Visibility Wind Dir Wind Speed Gust Speed Precip Events Conditions
12:53 AM 71.1 °F 68.0 °F 90% 29.85 in 7.0 mi SW 6.9 mph - N/A   Clear
1:30 AM 71.6 °F 68.0 °F 88% 29.85 in 7.0 mi West 5.8 mph - N/A   Mostly Cloudy
1:53 AM 70.0 °F 68.0 °F 93% 29.85 in 7.0 mi West 4.6 mph - N/A   Overcast
2:20 AM 69.8 °F 68.0 °F 94% 29.84 in 8.0 mi West 4.6 mph - N/A   Overcast
2:51 AM 69.8 °F 66.2 °F 88% 29.84 in 10.0 mi WNW 4.6 mph - N/A   Mostly Cloudy
2:53 AM 69.1 °F 66.0 °F 90% 29.84 in 10.0 mi WNW 3.5 mph - N/A   Scattered Clouds
3:41 AM 69.8 °F 66.2 °F 88% 29.86 in 10.0 mi NW 5.8 mph - N/A   Overcast
3:53 AM 69.1 °F 66.0 °F 90% 29.86 in 10.0 mi NW 4.6 mph - N/A   Overcast
4:53 AM 66.9 °F 64.9 °F 93% 29.86 in 10.0 mi NNW 3.5 mph - N/A   Partly Cloudy
5:53 AM 66.9 °F 64.0 °F 90% 29.88 in 10.0 mi Calm Calm - N/A   Clear
6:53 AM 64.9 °F 62.1 °F 90% 29.90 in 10.0 mi Calm Calm - N/A   Clear
7:45 AM 64.4 °F 62.6 °F 94% 29.93 in 9.0 mi NW 5.8 mph - N/A   Scattered Clouds
7:53 AM 64.9 °F 63.0 °F 93% 29.93 in 9.0 mi NNW 4.6 mph - N/A   Mostly Cloudy
8:07 AM 64.4 °F 62.6 °F 94% 29.94 in 9.0 mi NNW 5.8 mph - N/A   Overcast
8:53 AM 64.0 °F 62.1 °F 93% 29.95 in 5.0 mi NNW 8.1 mph - N/A   Overcast
9:53 AM 63.0 °F 61.0 °F 93% 29.98 in 7.0 mi North 5.8 mph - N/A   Overcast
10:53 AM 63.0 °F 60.1 °F 90% 29.99 in 8.0 mi NNE 5.8 mph - N/A   Overcast
11:27 AM 62.6 °F 59.0 °F 88% 30.00 in 10.0 mi North 5.8 mph - 0.00 in Rain Light Rain
11:53 AM 62.6 °F 59.0 °F 88% 30.01 in 10.0 mi NNW 6.9 mph - N/A   Overcast
12:53 PM 62.1 °F 57.0 °F 84% 29.97 in 10.0 mi North 5.8 mph - 0.00 in Rain Light Rain
1:53 PM 61.0 °F 57.0 °F 87% 29.99 in 10.0 mi North 6.9 mph - 0.00 in Rain Light Rain
2:09 PM 60.8 °F 57.2 °F 88% 29.99 in 10.0 mi North 5.8 mph - 0.00 in Rain Light Rain
2:53 PM 61.0 °F 57.0 °F 87% 29.99 in 6.0 mi North 5.8 mph - 0.00 in Rain Rain
3:24 PM 60.8 °F 57.2 °F 88% 29.99 in 10.0 mi NNE 5.8 mph - 0.01 in Rain Light Rain
3:53 PM 60.1 °F 57.0 °F 90% 29.98 in 9.0 mi NNE 8.1 mph - 0.01 in Rain Light Rain
4:53 PM 59.0 °F 55.9 °F 90% 29.98 in 10.0 mi North 8.1 mph - 0.00 in   Mostly Cloudy
5:53 PM 57.9 °F 55.0 °F 90% 30.00 in 10.0 mi North 6.9 mph - N/A   Overcast
6:53 PM 57.9 °F 54.0 °F 87% 29.99 in 10.0 mi NE 6.9 mph - N/A   Overcast
7:53 PM 57.0 °F 54.0 °F 89% 30.00 in 10.0 mi NNE 9.2 mph - N/A   Overcast
8:53 PM 55.9 °F 53.1 °F 90% 30.06 in 10.0 mi North 8.1 mph - N/A   Overcast
9:53 PM 55.0 °F 51.1 °F 86% 30.07 in 10.0 mi North 11.5 mph - N/A   Overcast
10:53 PM 54.0 °F 50.0 °F 86% 30.09 in 10.0 mi NNE 6.9 mph - N/A   Overcast
11:53 PM 54.0 °F 51.1 °F 90% 30.13 in 10.0 mi North 6.9 mph - 0.00 in   Overcast